SL-12 R/B(AUX MOTOR), 19755

Orbit data source: Space-Track

SL-12 R/B(AUX MOTOR), 19755 is space debris in HEO originally from a launch on Tue, 10 Jan 1989 UTC launched from the Tyuratam Missile And Space Complex (TTMTR). Debris objects in space refer to the collection of defunct objects orbiting the Earth. Examples of debris include non-operational satellites, rocket bodies, and fragments generated from explosions, collisions, or faulty payload assembly.

Loading next visibility...
Identifier
19755, 1989-001G
Orbit
HEO
Country
Flag of CISCIS
Related business
Manufacturer
NPO Energiya
Mission
Spacecraft
Bus & Motor
SOZ, Unknown motor
Mass
Wet unknown, ~60 kg dry
Launch date (UTC)
1989-01-10 (37 years ago)
Launch vehicle
Unknown
Launch site
Tyuratam Missile And Space Complex (TTMTR)
Object type
Payload
Rocket body
Debris
Shape & HBR
Cyl, 0.6 m
Radar Cross Section
0.660 m², Medium (>0.1 m² and < 1m²)

Expand to show TLE details & history
Last TLE update: 10 hours ago

TLE from 10 hours ago
0 SL-12 R/B(AUX MOTOR)
1 19755U 89001G   25258.07534060  .00000013  00000-0 -10188-3 0  9998
2 19755  65.2535 104.1453 5502967  91.1744 329.1241  4.25602824569402
Epoch: 2025-09-15T01:48Z
TLE epoch observation values (Epoch: 2025-09-15T01:48:29.427Z)
Latitude
-0°
Longitude
82.74148°
Altitude
4,949.757 km
Speed
6.753 km/s
True Right ascension
06h 56m 35s
True Declination
0° 00' 00"
Sunlit
Object was in daylight at epoch
Visualization orbit readout
Latitude
Unknown
Longitude
Unknown
Altitude
Unknown
Speed
Unknown
Apparent Right ascension
Unknown
Apparent Declination
Unknown
Sunlit
N/A
Visualization observer readout
Local Sidereal Time
04:08:38
Azimuth
Unknown
Elevation
Unknown
Doppler factor
Unknown
Orbital elements
Apogee altitude
18,555.395 km
Perigee altitude
854.473 km
Semi-major axis
16,083.071 km
Eccentricity
0.5503
Inclination
65.2535°
RAAN
104.1453°
Arg. of periapsis
91.1744°
True anomaly
268.99694°
Mean anomaly
329.1241°
Eccentric anomaly
302.54578°
Mean motion
1.06412 °/min
Orbital period
338.31 mins
BSTAR
-0.00010188
Loading maneuver chart data...
Computing Atmospheric mass density...
Loading historical data...
Loading historical data...
Loading historical data...
Loading historical data...
Loading historical data...
Loading historical data...
Loading historical data...

Documentation

Showing up to 5 results
|